Tillbaka till svenska Fidonet
English   Information   Debug  
FILM   0/18
FNEWS_PUBLISH   4926
FN_SYSOP   42201
FN_SYSOP_OLD1   71952
FTP_FIDO   0/2
FTSC_PUBLIC   0/13972
FUNNY   0/4886
GENEALOGY.EUR   0/71
GET_INFO   105
GOLDED   0/408
HAM   4353/16660
HOLYSMOKE   0/6791
HOT_SITES   0/1
HTMLEDIT   0/71
HUB203   466
HUB_100   264
HUB_400   39
HUMOR   0/29
IC   0/2851
INTERNET   0/424
INTERUSER   0/3
IP_CONNECT   719
JAMNNTPD   0/233
JAMTLAND   0/47
KATTY_KORNER   0/41
LAN   0/16
LINUX-USER   0/19
LINUXHELP   0/1155
LINUX   0/22300
LINUX_BBS   0/957
mail   18.68
mail_fore_ok   249
MENSA   0/341
MODERATOR   0/102
MONTE   0/992
MOSCOW_OKLAHOMA   0/1245
MUFFIN   0/783
MUSIC   0/321
N203_STAT   938
N203_SYSCHAT   313
NET203   321
NET204   69
NET_DEV   0/10
NORD.ADMIN   0/101
NORD.CHAT   0/2572
NORD.FIDONET   189
NORD.HARDWARE   0/28
NORD.KULTUR   0/114
NORD.PROG   0/32
NORD.SOFTWARE   0/88
NORD.TEKNIK   0/58
NORD   0/453
OCCULT_CHAT   0/93
OS2BBS   0/787
OS2DOSBBS   0/580
OS2HW   0/42
OS2INET   0/37
OS2LAN   0/134
OS2PROG   0/36
OS2REXX   0/113
OS2USER-L   207
OS2   0/4830
OSDEBATE   0/18996
PASCAL   0/490
PERL   0/457
PHP   0/45
POINTS   0/405
POLITICS   0/29554
POL_INC   0/14731
PSION   103
R20_ADMIN   1133
R20_AMATORRADIO   0/2
R20_BEST_OF_FIDONET   16
R20_CHAT   0/896
R20_DEPP   0/3
R20_DEV   400
R20_ECHO2   1830
R20_ECHOPRES   0/35
R20_ESTAT   0/719
R20_FIDONETPROG...
...RAM.MYPOINT
  0/2
R20_FIDONETPROGRAM   0/22
R20_FIDONET   0/248
R20_FILEFIND   0/24
R20_FILEFOUND   0/22
R20_HIFI   0/3
R20_INFO2   3723
R20_INTERNET   0/12940
R20_INTRESSE   0/60
R20_INTR_KOM   0/99
R20_KANDIDAT.CHAT   42
R20_KANDIDAT   28
R20_KOM_DEV   112
R20_KONTROLL   0/13360
R20_KORSET   0/18
R20_LOKALTRAFIK   0/24
R20_MODERATOR   0/1852
R20_NC   76
R20_NET200   245
R20_NETWORK.OTH...
...ERNETS
  0/13
R20_OPERATIVSYS...
...TEM.LINUX
  0/44
R20_PROGRAMVAROR   0/1
R20_REC2NEC   534
R20_SFOSM   0/341
R20_SF   0/108
R20_SPRAK.ENGLISH   0/1
R20_SQUISH   107
R20_TEST   2
R20_WORST_OF_FIDONET   20
RAR   0/9
RA_MULTI   106
RA_UTIL   0/162
REGCON.EUR   0/2068
REGCON   0/13
SCIENCE   0/1206
SF   0/239
SHAREWARE_SUPPORT   0/5146
SHAREWRE   0/14
SIMPSONS   0/169
STATS_OLD1   0/2539.065
STATS_OLD2   0/2530
STATS_OLD3   0/2395.095
STATS_OLD4   0/1692.25
SURVIVOR   0/495
SYSOPS_CORNER   0/3
SYSOP   0/84
TAGLINES   0/112
TEAMOS2   0/4530
TECH   0/2617
TEST.444   0/105
TRAPDOOR   0/19
TREK   0/755
TUB   0/290
UFO   0/40
UNIX   0/1316
USA_EURLINK   0/102
USR_MODEMS   0/1
VATICAN   0/2740
VIETNAM_VETS   0/14
VIRUS   0/378
VIRUS_INFO   0/201
VISUAL_BASIC   0/473
WHITEHOUSE   0/5187
WIN2000   0/101
WIN32   0/30
WIN95   0/4291
WIN95_OLD1   0/70272
WINDOWS   0/1517
WWB_SYSOP   0/419
WWB_TECH   0/810
ZCC-PUBLIC   0/1
ZEC   4

 
4DOS   0/134
ABORTION   0/7
ALASKA_CHAT   0/506
ALLFIX_FILE   0/1313
ALLFIX_FILE_OLD1   0/7997
ALT_DOS   0/152
AMATEUR_RADIO   0/1039
AMIGASALE   0/14
AMIGA   0/331
AMIGA_INT   0/1
AMIGA_PROG   0/20
AMIGA_SYSOP   0/26
ANIME   0/15
ARGUS   0/924
ASCII_ART   0/340
ASIAN_LINK   0/651
ASTRONOMY   0/417
AUDIO   0/92
AUTOMOBILE_RACING   0/105
BABYLON5   0/17862
BAG   135
BATPOWER   0/361
BBBS.ENGLISH   0/382
BBSLAW   0/109
BBS_ADS   0/5290
BBS_INTERNET   0/507
BIBLE   0/3563
BINKD   0/1119
BINKLEY   0/215
BLUEWAVE   0/2173
CABLE_MODEMS   0/25
CBM   0/46
CDRECORD   0/66
CDROM   0/20
CLASSIC_COMPUTER   0/378
COMICS   0/15
CONSPRCY   0/899
COOKING   41444
COOKING_OLD1   0/24719
COOKING_OLD2   0/40862
COOKING_OLD3   0/37489
COOKING_OLD4   0/35496
COOKING_OLD5   9370
C_ECHO   0/189
C_PLUSPLUS   0/31
DIRTY_DOZEN   0/201
DOORGAMES   0/2285
DOS_INTERNET   0/196
duplikat   6102
ECHOLIST   0/18295
EC_SUPPORT   0/318
ELECTRONICS   0/359
ELEKTRONIK.GER   1534
ENET.LINGUISTIC   0/13
ENET.POLITICS   0/4
ENET.SOFT   0/11701
ENET.SYSOP   34296
ENET.TALKS   0/32
ENGLISH_TUTOR   0/2000
EVOLUTION   0/1335
FDECHO   0/217
FDN_ANNOUNCE   0/7068
FIDONEWS   25062
FIDONEWS_OLD1   0/49742
FIDONEWS_OLD2   0/35949
FIDONEWS_OLD3   0/30874
FIDONEWS_OLD4   0/37224
FIDO_SYSOP   12922
FIDO_UTIL   0/180
FILEFIND   0/209
FILEGATE   0/212
Möte HAM, 16660 texter
 lista första sista föregående nästa
Text 4115, 876 rader
Skriven 2010-10-28 22:00:47 av Amsat List (1:323/120.0)
Ärende: [keps]  orb10301.amsa
=============================
[keps]  orb10301.amsa

Return-Path: <keps-bounces@amsat.org>
X-Rcpt: craig.healy@chowda.com
X-UIDL: 1288316692.27473

SB KEPS @ AMSAT  $ORB10301.O
Orbital Elements  10301.OSCAR

HR AMSAT ORBITAL ELEMENTS FOR OSCAR SATELLITES
FROM WA5QGD FORT WORTH,TX October 28, 2010
BID: ORB10301.O
TO ALL RADIO AMATEURS BT

Satellite: AO-07
Catalog number: 07530
Epoch time:      10300.92040442
Element set:    0916
Inclination:      101.3997 deg
RA of node:       311.6254 deg
Eccentricity:    0.0012253
Arg of perigee:   014.5401 deg
Mean anomaly:     345.6017 deg
Mean motion:   12.53580038 rev/day
Decay rate:       -2.7e-07 rev/day^2
Epoch rev:           64508
Checksum:              252

Satellite: FO-29
Catalog number: 24278
Epoch time:      10301.66195490
Element set:     425
Inclination:      098.5182 deg
RA of node:       112.3778 deg
Eccentricity:    0.0351102
Arg of perigee:   137.5077 deg
Mean anomaly:     225.3818 deg
Mean motion:   13.52953723 rev/day
Decay rate:        2.4e-07 rev/day^2
Epoch rev:           70115
Checksum:              294

Satellite: SO-33
Catalog number: 25509
Epoch time:      10301.54597441
Element set:     824
Inclination:      031.4315 deg
RA of node:       114.3559 deg
Eccentricity:    0.0352948
Arg of perigee:   015.8890 deg
Mean anomaly:     345.2447 deg
Mean motion:   14.28335354 rev/day
Decay rate:       2.18e-06 rev/day^2
Epoch rev:           62713
Checksum:              299

Satellite: RS-22
Catalog number: 27939
Epoch time:      10301.65619874
Element set:     672
Inclination:      097.8698 deg
RA of node:       161.3365 deg
Eccentricity:    0.0013717
Arg of perigee:   002.7032 deg
Mean anomaly:     357.4242 deg
Mean motion:   14.63469045 rev/day
Decay rate:       1.83e-06 rev/day^2
Epoch rev:           37847
Checksum:              325

Satellite: VO-52
Catalog number: 28650
Epoch time:      10301.70204233
Element set:     632
Inclination:      097.6762 deg
RA of node:       349.8118 deg
Eccentricity:    0.0026562
Arg of perigee:   197.3803 deg
Mean anomaly:     162.6532 deg
Mean motion:   14.81837321 rev/day
Decay rate:       4.54e-06 rev/day^2
Epoch rev:           29646
Checksum:              301

Satellite: SO-67
Catalog number: 35870
Epoch time:      10301.67472727
Element set:     236
Inclination:      097.3156 deg
RA of node:       347.1675 deg
Eccentricity:    0.0003451
Arg of perigee:   019.6355 deg
Mean anomaly:     126.6882 deg
Mean motion:   15.21143251 rev/day
Decay rate:      1.289e-05 rev/day^2
Epoch rev:            6174
Checksum:              305

Satellite: HO-68
Catalog number: 36122
Epoch time:      10301.64238573
Element set:     796
Inclination:      100.4535 deg
RA of node:       000.6218 deg
Eccentricity:    0.0007783
Arg of perigee:   035.2249 deg
Mean anomaly:     324.9379 deg
Mean motion:   13.16282371 rev/day
Decay rate:       -4.5e-07 rev/day^2
Epoch rev:            4177
Checksum:              289

/EX
SB KEPS @ AMSAT  $ORB10301.D
Orbital Elements  10301.MICROS

HR AMSAT ORBITAL ELEMENTS FOR THE MICROSATS
FROM WA5QGD FORT WORTH,TX October 28, 2010
BID: ORB10301.D
TO ALL RADIO AMATEURS BT

Satellite: UO-11
Catalog number: 14781
Epoch time:      10300.75342183
Element set:    0376
Inclination:      098.0390 deg
RA of node:       352.7764 deg
Eccentricity:    0.0009147
Arg of perigee:   164.1572 deg
Mean anomaly:     195.9905 deg
Mean motion:   14.79849878 rev/day
Decay rate:        3.0e-07 rev/day^2
Epoch rev:           43141
Checksum:              316

Satellite: AO-16
Catalog number: 20439
Epoch time:      10301.79742930
Element set:      29
Inclination:      098.3505 deg
RA of node:       254.5613 deg
Eccentricity:    0.0011591
Arg of perigee:   126.5263 deg
Mean anomaly:     233.6991 deg
Mean motion:   14.31880226 rev/day
Decay rate:        4.2e-07 rev/day^2
Epoch rev:            8450
Checksum:              282

Satellite: LO-19
Catalog number: 20442
Epoch time:      10301.84364414
Element set:     939
Inclination:      098.3130 deg
RA of node:       259.8718 deg
Eccentricity:    0.0012739
Arg of perigee:   121.7305 deg
Mean anomaly:     238.5120 deg
Mean motion:   14.32109553 rev/day
Decay rate:        3.8e-07 rev/day^2
Epoch rev:            8468
Checksum:              289

Satellite: AO-27
Catalog number: 22825
Epoch time:      10300.88085828
Element set:    0661
Inclination:      098.5011 deg
RA of node:       245.4900 deg
Eccentricity:    0.0007541
Arg of perigee:   237.7447 deg
Mean anomaly:     122.3019 deg
Mean motion:   14.29313392 rev/day
Decay rate:        8.0e-07 rev/day^2
Epoch rev:           89100
Checksum:              283

Satellite: IO-26
Catalog number: 22826
Epoch time:      10300.85250134
Element set:     398
Inclination:      098.4953 deg
RA of node:       246.0154 deg
Eccentricity:    0.0008201
Arg of perigee:   230.3980 deg
Mean anomaly:     129.6488 deg
Mean motion:   14.29571112 rev/day
Decay rate:        3.2e-07 rev/day^2
Epoch rev:           89111
Checksum:              283

Satellite: GO-32
Catalog number: 25397
Epoch time:      10300.55590535
Element set:    0319
Inclination:      098.3167 deg
RA of node:       300.7409 deg
Eccentricity:    0.0000534
Arg of perigee:   188.0784 deg
Mean anomaly:     172.0411 deg
Mean motion:   14.23187859 rev/day
Decay rate:       -1.6e-07 rev/day^2
Epoch rev:           63887
Checksum:              305

Satellite: NO-44
Catalog number: 26931
Epoch time:      10300.84842831
Element set:     592
Inclination:      067.0530 deg
RA of node:       222.1739 deg
Eccentricity:    0.0005628
Arg of perigee:   270.3188 deg
Mean anomaly:     089.7249 deg
Mean motion:   14.29618257 rev/day
Decay rate:       1.35e-06 rev/day^2
Epoch rev:           47371
Checksum:              309

